Miscellaneous Local Product
Issued by NWS North Platte, NE

Home | Current Version | Previous Version | Text Only | Print | Product List | Glossary On
Versions: 1 2 3 4 5 6 7 8 9 10 11 12 13 14 15 16 17 18 19 20 21 22 23 24 25 26 27 28 29 30 31 32 33 34 35 36 37 38 39 40 41 42 43 44 45 46 47 48 49 50
037
AXUS43 KLBF 192010
MISLBF


WESTERN AND NORTH CENTRAL NEBRASKA HOURLY WEATHER ROUNDUP
NATIONAL WEATHER SERVICE NORTH PLATTE NE
200 PM CST SUN FEB 19 2017

NOTE: "FAIR" INDICATES FEW OR NO CLOUDS BELOW 12,000 FEET WITH NO
SIGNIFICANT WEATHER AND/OR OBSTRUCTIONS TO VISIBILITY.

NOTE: STATIONS NOT REPORTING VARIABLES SUCH AS SKY/WEATHER OR
PRESSURE ARE PROVIDED BY RAWS AND APRS NETWORKS AND ARE NOT UNDER
NATIONAL WEATHER SERVICE QUALITY CONTROL.

...OBSERVATIONS IN AND NEAR THE EASTERN PANHANDLE OF NEBRASKA...

CITY           SKY/WX    TMP DP  RH WIND       PRES   REMARKS
PINE RIDGE     PTSUNNY   55  37  50 S12       29.57F
CHADRON        MOSUNNY   65  31  28 S14G24    29.55F
ALLIANCE       CLOUDY    61  32  33 SE6       29.60F
SIDNEY         CLOUDY    60  27  28 S14       29.64S
CRESCENT LAKE    N/A     59  32  36 SE6         N/A
$$

...OBSERVATIONS IN NORTHERN NEBRASKA AND FAR SOUTHERN SOUTH DAKOTA...

CITY           SKY/WX    TMP DP  RH WIND       PRES   REMARKS
WINNER         FAIR      68  41  37 S20       29.57F
VALENTINE      CLOUDY    64  35  34 S16G22    29.59F
THEDFORD       MOSUNNY   65  38  37 S18G25    29.65F
AINSWORTH      MOSUNNY   67  41  39 S22G29    29.62S
O`NEILL        PTSUNNY   68  45  42 S21G30    29.67F
ORD            CLOUDY    69  43  38 S22G29    29.69F
BROKEN BOW     CLOUDY    68  45  43 S28G38    29.68S
VALENTINE NWR    N/A     61  38  41 SW14        N/A
HALSEY           N/A     65  39  39 S13G24      N/A
CHAMBERS         N/A     69  46  43 S7G15       N/A
EWING            N/A     66  50  56 S15G22      N/A
$$

...OBSERVATIONS IN SOUTHWEST NEBRASKA AND FAR NORTHEAST COLORADO...

CITY           SKY/WX    TMP DP  RH WIND       PRES   REMARKS
HOLYOKE        FAIR      64  32  29 S13       29.65F
IMPERIAL       CLOUDY    59  37  44 SE10      29.66F
OGALLALA       CLOUDY    64  34  33 S12       29.64F
NORTH PLATTE   CLOUDY    62  42  47 S15G25    29.69F
MCCOOK         PTSUNNY   73  42  32 S23G32    29.68F
LEXINGTON      MOSUNNY   66  44  44 S25G32    29.69F
STAPLETON        N/A     64  44  48 SE3G12      N/A
GOTHENBURG       N/A     62  42  48 S13         N/A
CALLAWAY         N/A     62  47  57 SW22        N/A
$$

...OBSERVATIONS IN CENTRAL LINCOLN COUNTY AREA...

CITY           SKY/WX    TMP DP  RH WIND       PRES   REMARKS
N.P. AIRPORT   CLOUDY    62  42  47 S15G25    29.69F
N.P. DOWNTOWN    N/A     61  44  53 S5G12       N/A
N.P. SOUTHEAST   N/A     61  44  53 S7G14       N/A
N.P. HILLCREST   N/A     60  44  55 S13G23      N/A
$$

...SOME OBSERVATIONS FROM AROUND THE REGION...

CITY           SKY/WX    TMP DP  RH WIND       PRES   REMARKS
LARAMIE        CLOUDY    50  23  34 W10       29.65F
CHEYENNE       CLOUDY    55  25  31 SE10      29.64F
DENVER         CLOUDY    60  25  26 N13       29.59F
AKRON          CLOUDY    67  26  21 S17G26    29.62F
SCOTTSBLUFF    CLOUDY    58  33  39 CALM      29.60F
RAPID CITY     CLOUDY    68  31  25 SW18      29.48F
BISMARCK       CLOUDY    43  35  73 SE10      29.51F
PIERRE         CLOUDY    63  38  39 S20       29.50F
SIOUX FALLS    CLOUDY    63  50  62 S20G28    29.72F
OMAHA          CLOUDY    68  49  50 SE23      29.83S
GRAND ISLAND   MOSUNNY   71  47  42 S24G31    29.74F
KANSAS CITY    PTSUNNY   72  53  51 S15G21    29.90F
WICHITA        CLOUDY    61  55  81 S14       29.86F
OKLAHOMA CITY  PTSUNNY   72  59  63 S20       29.86F
DALLAS         CLOUDY    74  66  76 SE15      29.85F
AMARILLO       CLOUDY    66  44  45 S15       29.80F
DODGE CITY     SUNNY     67  50  54 S23G31    29.76F
HAYS           SUNNY     71  48  43 S22       29.74F
GOODLAND       MOSUNNY   67  42  40 S30G38    29.67F
$$




USA.gov is the U.S. government's official web portal to all federal, state and local government web resources and services.